TimeEST,TemperatureF,Dew PointF,Humidity,Sea Level PressureIn,VisibilityMPH,Wind Direction,Wind SpeedMPH,Gust SpeedMPH,PrecipitationIn,Events,Conditions,WindDirDegrees,DateUTC
12:00 AM,28.0,25.0,88,30.03,1.8,West,12.7,-,0.01,Snow,Light Snow,260,2013-12-26 05:00:00
12:14 AM,28.0,25.0,88,30.03,1.2,West,12.7,-,0.01,Snow,Light Snow,260,2013-12-26 05:14:00
12:21 AM,28.0,24.1,85,30.02,1.8,West,13.8,-,0.01,Snow,Light Snow,260,2013-12-26 05:21:00
12:51 AM,28.4,24.8,86,30.02,3.0,West,9.2,-,0.01,Snow,Light Snow,270,2013-12-26 05:51:00
12:53 AM,28.0,25.0,88,30.05,3.0,West,8.1,-,0.01,Snow,Light Snow,260,2013-12-26 05:53:00
1:09 AM,28.0,24.1,85,30.02,3.0,West,10.4,-,0.00,Snow,Light Snow,270,2013-12-26 06:09:00
1:12 AM,28.0,24.1,85,30.02,2.5,West,11.5,-,0.00,Snow,Light Snow,270,2013-12-26 06:12:00
1:28 AM,28.0,25.0,88,30.02,1.8,West,11.5,-,0.01,Snow,Light Snow,270,2013-12-26 06:28:00
1:49 AM,28.4,24.8,86,30.02,3.0,West,11.5,-,0.01,Snow,Light Snow,270,2013-12-26 06:49:00
1:50 AM,28.0,24.1,85,30.05,3.0,West,11.5,-,0.01,Snow,Light Snow,260,2013-12-26 06:50:00
1:58 AM,28.0,24.1,85,30.02,2.5,West,11.5,-,0.00,Snow,Light Snow,270,2013-12-26 06:58:00
2:07 AM,28.0,24.1,85,30.02,4.0,West,10.4,-,0.00,Snow,Light Snow,270,2013-12-26 07:07:00
2:53 AM,28.9,23.0,78,30.05,9.0,West,11.5,-,0.00,Snow,Light Snow,270,2013-12-26 07:53:00
3:53 AM,28.9,21.9,75,30.07,5.0,West,12.7,18.4,0.00,Snow,Light Snow,280,2013-12-26 08:53:00
4:26 AM,28.9,21.9,75,30.04,6.0,West,11.5,20.7,0.01,Snow,Light Snow,280,2013-12-26 09:26:00
4:43 AM,28.0,23.0,81,30.05,1.8,West,16.1,23.0,0.01,Snow,Light Snow,270,2013-12-26 09:43:00
4:45 AM,27.0,23.0,85,30.04,1.2,West,15.0,23.0,0.01,Snow,Light Snow,280,2013-12-26 09:45:00
4:53 AM,28.0,23.0,81,30.08,2.0,West,13.8,21.9,0.01,Snow,Light Snow,280,2013-12-26 09:53:00
5:12 AM,28.0,21.0,75,30.05,8.0,West,16.1,21.9,0.00,,Overcast,280,2013-12-26 10:12:00
5:42 AM,28.0,19.9,72,30.07,9.0,WNW,17.3,25.3,0.00,Snow,Light Snow,290,2013-12-26 10:42:00
5:53 AM,27.0,19.0,72,30.10,10.0,WNW,16.1,24.2,0.00,,Overcast,290,2013-12-26 10:53:00
6:10 AM,27.0,18.0,69,30.08,10.0,West,15.0,24.2,N/A,,Overcast,280,2013-12-26 11:10:00
6:53 AM,25.0,15.1,66,30.14,10.0,WNW,12.7,20.7,N/A,,Overcast,290,2013-12-26 11:53:00
7:15 AM,24.1,15.1,69,30.12,10.0,WNW,9.2,-,N/A,,Overcast,300,2013-12-26 12:15:00
7:32 AM,24.1,14.0,65,30.13,10.0,WNW,11.5,-,N/A,,Overcast,290,2013-12-26 12:32:00
7:53 AM,25.0,15.1,66,30.17,10.0,WNW,9.2,19.6,N/A,,Overcast,290,2013-12-26 12:53:00
8:17 AM,25.0,16.0,69,30.14,10.0,WNW,9.2,-,0.00,Snow,Light Snow,290,2013-12-26 13:17:00
8:53 AM,25.0,15.1,66,30.19,10.0,West,8.1,-,0.00,,Overcast,280,2013-12-26 13:53:00
9:48 AM,24.8,15.8,69,30.19,9.0,West,9.2,18.4,0.00,Snow,Light Snow,280,2013-12-26 14:48:00
9:53 AM,25.0,16.0,69,30.22,7.0,WNW,13.8,20.7,0.00,Snow,Light Snow,290,2013-12-26 14:53:00
10:53 AM,25.0,16.0,69,30.25,10.0,WNW,9.2,-,0.00,,Overcast,300,2013-12-26 15:53:00
11:04 AM,26.1,16.0,66,30.22,10.0,West,8.1,-,N/A,,Overcast,280,2013-12-26 16:04:00
11:53 AM,27.0,17.1,66,30.25,10.0,West,11.5,-,N/A,,Overcast,270,2013-12-26 16:53:00
12:53 PM,26.1,17.1,69,30.25,10.0,West,9.2,-,N/A,,Overcast,270,2013-12-26 17:53:00
1:53 PM,26.1,18.0,71,30.25,4.0,WSW,11.5,-,0.00,Snow,Light Snow,250,2013-12-26 18:53:00
2:53 PM,26.1,19.0,75,30.24,10.0,SW,12.7,-,0.00,,Overcast,230,2013-12-26 19:53:00
3:33 PM,26.1,19.9,78,30.21,3.0,SW,10.4,-,0.00,Snow,Light Snow,230,2013-12-26 20:33:00
3:53 PM,27.0,21.0,78,30.23,3.0,SSW,8.1,-,0.00,Snow,Light Snow,210,2013-12-26 20:53:00
4:03 PM,27.0,21.9,81,30.21,2.5,SSW,6.9,-,0.00,Snow,Light Snow,200,2013-12-26 21:03:00
4:24 PM,27.0,23.0,85,30.21,1.8,South,5.8,-,0.00,Snow,Light Snow,190,2013-12-26 21:24:00
4:33 PM,27.0,23.0,85,30.21,2.0,South,5.8,-,0.00,Snow,Light Snow,190,2013-12-26 21:33:00
4:53 PM,26.1,23.0,88,30.23,3.0,South,8.1,-,0.00,Snow,Light Snow,180,2013-12-26 21:53:00
5:36 PM,26.1,23.0,88,30.20,4.0,South,9.2,-,0.00,Snow,Light Snow,180,2013-12-26 22:36:00
5:53 PM,26.1,23.0,88,30.24,4.0,South,10.4,-,0.01,Snow,Light Snow,180,2013-12-26 22:53:00
6:03 PM,26.1,23.0,88,30.21,5.0,South,11.5,-,0.00,Snow,Light Snow,180,2013-12-26 23:03:00
6:18 PM,26.1,21.9,84,30.21,7.0,South,11.5,-,0.00,Snow,Light Snow,180,2013-12-26 23:18:00
6:53 PM,25.0,21.0,85,30.25,4.0,South,9.2,-,0.00,Snow,Light Snow,180,2013-12-26 23:53:00
7:27 PM,25.0,21.0,85,30.22,2.5,South,9.2,-,0.00,Snow,Light Snow,180,2013-12-27 00:27:00
7:53 PM,25.0,21.0,85,30.25,2.0,South,9.2,-,0.00,Snow,Light Snow,170,2013-12-27 00:53:00
8:14 PM,25.0,21.9,88,30.21,3.0,South,10.4,-,0.00,Snow,Light Snow,170,2013-12-27 01:14:00
8:22 PM,25.0,21.9,88,30.21,3.0,South,9.2,-,0.00,Snow,Light Snow,170,2013-12-27 01:22:00
8:53 PM,25.0,21.9,88,30.23,2.5,South,9.2,-,0.00,Snow,Light Snow,170,2013-12-27 01:53:00
8:57 PM,25.0,21.9,88,30.20,3.0,South,9.2,-,0.00,Snow,Light Snow,170,2013-12-27 01:57:00
9:09 PM,25.0,23.0,92,30.20,2.5,South,8.1,-,0.00,Snow,Light Snow,180,2013-12-27 02:09:00
9:21 PM,26.1,23.0,88,30.20,3.0,South,8.1,-,0.00,Snow,Light Snow,180,2013-12-27 02:21:00
9:31 PM,26.1,23.0,88,30.20,1.8,South,9.2,-,0.00,Snow,Light Snow,180,2013-12-27 02:31:00
9:53 PM,26.1,24.1,92,30.23,1.2,South,9.2,-,0.01,Snow,Light Snow,190,2013-12-27 02:53:00
10:00 PM,27.0,24.1,89,30.19,1.8,South,8.1,-,0.00,Snow,Light Snow,190,2013-12-27 03:00:00
10:09 PM,27.0,24.1,89,30.19,2.5,South,9.2,-,0.00,Snow,Light Snow,190,2013-12-27 03:09:00
10:29 PM,27.0,24.1,89,30.19,3.0,South,9.2,-,0.00,Snow,Light Snow,190,2013-12-27 03:29:00
10:47 PM,28.4,24.8,86,30.19,1.8,SSW,8.1,-,0.00,Snow,Light Snow,200,2013-12-27 03:47:00
10:53 PM,28.0,26.1,92,30.22,1.5,South,9.2,-,0.00,Snow,Light Snow,190,2013-12-27 03:53:00
11:06 PM,28.0,26.1,92,30.19,2.0,SSW,9.2,-,0.01,Snow,Light Snow,200,2013-12-27 04:06:00
11:35 PM,28.9,27.0,92,30.19,4.0,South,5.8,-,0.01,Snow,Light Snow,190,2013-12-27 04:35:00
11:53 PM,28.9,27.0,92,30.22,6.0,South,6.9,-,0.01,,Overcast,190,2013-12-27 04:53:00